DW2470 Weather Reports


time (UTC)temp
F
wind
direction
speed
knots
gust
knots
rain 1hr
in
rain 24hr
in
rain mn
in
humidity
%
barometer
mb
20260902194602 73 341 1.7 0.0 0.00 0.00 0.00 62 1009.7
20260902193101 74 14 2.6 0.0 0.00 0.00 0.00 61 1009.7
20260902191556 75 115 1.7 0.0 0.00 0.00 0.00 56 1009.5
20260902190059 75 202 0.9 0.0 0.00 0.00 0.00 57 1009.7
20260902184551 74 98 0.0 0.0 0.00 0.00 0.00 59 1009.8
20260902183059 72 350 2.6 0.0 0.00 0.00 0.00 63 1009.9
20260902181547 72 301 0.9 0.0 0.00 0.00 0.00 64 1010.0
20260902180047 72 300 0.9 0.0 0.00 0.00 0.00 65 1010.1
20260902174545 72 312 1.7 0.0 0.00 0.00 0.00 63 1010.1
20260902173056 71 298 2.6 0.0 0.00 0.00 0.00 65 1010.0
20260902171542 71 300 1.7 0.0 0.00 0.00 0.00 65 1009.8
20260902170047 72 307 1.7 0.0 0.00 0.00 0.00 63 1009.9
20260902164542 71 300 1.7 0.0 0.00 0.00 0.00 66 1010.1
20260902163042 70 14 2.6 0.0 0.00 0.00 0.00 65 1010.1
20260902161503 70 195 2.6 0.0 0.00 0.00 0.00 68 1010.0
20260902160001 69 183 2.6 0.0 0.00 0.00 0.00 70 1010.1
20260902154557 69 280 3.5 0.0 0.00 0.00 0.00 73 1010.2
20260902153105 69 267 1.7 0.0 0.00 0.00 0.00 75 1010.3
20260902151552 68 216 0.9 0.0 0.00 0.00 0.00 78 1010.4
20260902150049 67 257 0.9 0.0 0.00 0.00 0.00 81 1010.3
20260902144544 66 243 0.9 0.0 0.00 0.00 0.00 83 1010.3
20260902143041 66 235 1.7 0.0 0.00 0.00 0.00 83 1010.1
20260902141538 65 247 0.9 0.0 0.00 0.00 0.00 86 1010.3
20260902140035 64 250 0.0 0.0 0.00 0.00 0.00 88 1010.6
20260902134527 63 274 0.9 0.0 0.00 0.00 0.00 93 1010.6
20260902133023 61 295 0.9 0.0 0.00 0.00 0.00 95 1010.5
20260902131519 59 295 0.0 0.0 0.00 0.00 0.00 96 1010.6
20260902130016 57 295 0.0 0.0 0.00 0.00 0.00 96 1010.5
20260902124514 56 293 0.0 0.0 0.00 0.00 0.00 96 1010.5
20260902123044 55 293 0.0 0.0 0.00 0.00 0.00 95 1010.3
20260902121545 56 292 0.0 0.0 0.00 0.00 0.00 95 1010.3
20260902120041 56 292 0.0 0.0 0.00 0.00 0.00 96 1010.2
20260902114541 55 291 0.0 0.0 0.00 0.00 0.00 95 1010.0
20260902113038 55 291 0.0 0.0 0.00 0.00 0.00 94 1009.9
20260902111537 55 290 0.0 0.0 0.00 0.00 0.00 94 1009.9
20260902110046 56 288 0.0 0.0 0.00 0.00 0.00 94 1010.0
20260902104552 56 289 0.0 0.0 0.00 0.00 0.00 93 1010.1
20260902103047 56 290 0.0 0.0 0.00 0.00 0.00 93 1010.1
20260902101531 57 290 0.0 0.0 0.00 0.00 0.00 93 1010.0
20260902100028 57 290 0.0 0.0 0.00 0.00 0.00 93 1010.0
20260902094527 57 290 0.0 0.0 0.00 0.00 0.00 93 1009.7
20260902093026 57 289 0.0 0.0 0.00 0.00 0.00 93 1009.7
20260902091526 56 289 0.0 0.0 0.00 0.00 0.00 92 1009.5
20260902090028 57 289 0.0 0.0 0.00 0.00 0.00 91 1009.6
20260902084533 58 287 0.0 0.0 0.00 0.00 0.00 92 1009.4
20260902083022 58 284 0.0 0.0 0.00 0.00 0.00 92 1009.1
20260902081521 58 279 0.9 0.0 0.00 0.00 0.00 93 1009.0
20260902080050 57 274 0.9 0.0 0.00 0.00 0.00 93 1009.1
20260902074548 57 274 0.9 0.0 0.00 0.00 0.00 93 1009.3
20260902073045 57 275 0.0 0.0 0.00 0.00 0.00 93 1009.6
20260902071544 56 275 0.9 0.0 0.00 0.00 0.00 92 1009.6
20260902070044 57 277 0.0 0.0 0.00 0.00 0.00 92 1009.8
20260902064543 57 279 0.0 0.0 0.00 0.00 0.00 92 1009.7
20260902063052 58 281 0.0 0.0 0.00 0.00 0.00 91 1009.8
20260902061557 58 281 0.0 0.0 0.00 0.00 0.00 91 1009.7
20260902060040 58 281 0.0 0.0 0.00 0.00 0.00 91 1009.8
20260902054535 58 281 0.0 0.0 0.00 0.00 0.00 93 1009.9
20260902053037 57 281 0.9 0.0 0.00 0.00 0.00 92 1010.0
20260902051538 58 281 0.9 0.0 0.00 0.00 0.00 90 1010.1
20260902050032 58 282 0.0 0.0 0.00 0.00 0.00 90 1009.9
20260902044555 59 282 0.0 0.0 0.00 0.00 0.00 90 1009.6
20260902043022 59 282 0.0 0.0 0.00 0.00 0.00 90 1009.6
20260902041529 59 282 0.0 0.0 0.00 0.00 0.00 89 1009.4
20260902040022 59 282 0.0 0.0 0.00 0.00 0.00 88 1009.5
20260902034521 60 282 0.0 0.0 0.00 0.00 0.00 85 1009.5
20260902033019 61 282 0.0 0.0 0.00 0.00 0.00 84 1009.6
20260902031537 62 282 0.0 0.0 0.00 0.00 0.00 83 1009.3
20260902030017 62 282 0.0 0.0 0.00 0.00 0.00 82 1009.1
20260902024516 63 282 0.0 0.0 0.00 0.00 0.00 80 1009.2
20260902023022 64 281 0.0 0.0 0.00 0.00 0.00 78 1009.2
20260902021514 64 273 0.0 0.0 0.00 0.00 0.00 77 1008.9
20260902020014 64 277 0.0 0.0 0.00 0.00 0.00 76 1008.7
20260902014515 64 277 0.0 0.0 0.00 0.00 0.00 76 1008.6
20260902013012 66 277 0.9 0.0 0.00 0.00 0.00 73 1008.2
20260902011516 68 275 0.0 0.0 0.00 0.00 0.00 69 1008.0
20260902010010 69 280 0.0 0.0 0.00 0.00 0.00 67 1008.1
20260902004510 69 279 0.9 0.0 0.00 0.00 0.00 66 1007.9
20260902003040 70 281 1.7 0.0 0.00 0.00 0.00 63 1007.7
20260902001539 71 14 1.7 0.0 0.00 0.00 0.00 61 1007.7
20260902000008 72 14 1.7 0.0 0.00 0.00 0.00 60 1007.8
20260901234507 73 265 1.7 0.0 0.00 0.00 0.00 58 1007.9
20260901233006 73 262 1.7 0.0 0.00 0.00 0.00 58 1007.7
20260901231503 74 306 2.6 0.0 0.00 0.00 0.00 57 1007.8
20260901230004 74 352 2.6 0.0 0.00 0.00 0.00 55 1007.7
20260901224501 74 204 2.6 0.0 0.00 0.00 0.00 56 1007.9
20260901223100 75 198 1.7 0.0 0.00 0.00 0.00 54 1007.9
20260901221610 74 14 2.6 0.0 0.00 0.00 0.00 56 1007.8
20260901220058 74 14 2.6 0.0 0.00 0.00 0.00 56 1007.8
20260901214555 75 123 1.7 0.0 0.00 0.00 0.00 53 1007.7
20260901213055 75 14 3.5 0.0 0.00 0.00 0.00 54 1007.6
20260901211553 76 300 4.3 0.0 0.00 0.00 0.00 51 1007.7
20260901210052 76 157 2.6 0.0 0.00 0.00 0.00 53 1007.7
20260901204551 77 175 2.6 0.0 0.00 0.00 0.00 52 1007.7
20260901203056 77 281 2.6 0.0 0.00 0.00 0.00 52 1007.7
20260901201551 77 193 3.5 0.0 0.00 0.00 0.00 52 1007.8
20260901200047 77 204 2.6 0.0 0.00 0.00 0.00 53 1007.9